• In Uzbekistan
  • List of Countries
  • For 7 days
  • Water Temperature
  • Satellite Maps
  • Weather Map
  • Weather Widgets
  • user-avatar
    Login

    Hourly Weather Sulzbach-Rosenberg

    Today, 20 September, Wednesday

    Time Temperature Precipitation Wind Pressure Humidity
    00:00 +7°C° 0 mm 1 mps 724 mmHg 92%
    01:00 +7°C° 0 mm 1 mps 724 mmHg 93%
    02:00 +7°C° 0 mm 1 mps 724 mmHg 94%
    03:00 +7°C° 0 mm 1 mps 724 mmHg 95%
    04:00 +7°C° 0 mm 1 mps 724 mmHg 95%
    05:00 +7°C° 0 mm 1 mps 724 mmHg 95%
    06:00 +7°C° 0 mm 1 mps 724 mmHg 95%
    07:00 +8°C° 0 mm 1 mps 725 mmHg 94%
    08:00 +10°C° 0.1 mm 1 mps 725 mmHg 88%
    09:00 +10°C° 0.1 mm 2 mps 725 mmHg 81%
    10:00 +13°C° 0.1 mm 2 mps 725 mmHg 75%
    11:00 +14°C° 0.1 mm 2 mps 725 mmHg 70%
    12:00 +15°C° 0.1 mm 2 mps 725 mmHg 65%
    13:00 +15°C° 0.1 mm 2 mps 725 mmHg 59%
    14:00 +14°C° 0.2 mm 3 mps 725 mmHg 63%
    15:00 +14°C° 0.2 mm 3 mps 724 mmHg 66%
    16:00 +13°C° 0.2 mm 3 mps 724 mmHg 69%
    17:00 +13°C° 0.1 mm 2 mps 724 mmHg 75%
    18:00 +12°C° 0.1 mm 2 mps 725 mmHg 80%
    19:00 +11°C° 0.1 mm 1 mps 725 mmHg 85%
    20:00 +10°C° 0 mm 1 mps 725 mmHg 86%
    21:00 +10°C° 0 mm 1 mps 725 mmHg 88%
    22:00 +10°C° 0 mm 1 mps 725 mmHg 89%
    23:00 +8°C° 0 mm 0 mps 725 mmHg 90%

    Tomorrow, 21 September, Thursday

    Time Temperature Precipitation Wind Pressure Humidity
    00:00 +8°C° 0 mm 0 mps 725 mmHg 91%
    01:00 +7°C° 0 mm 0 mps 725 mmHg 92%
    02:00 +7°C° 0 mm 0 mps 725 mmHg 93%
    03:00 +6°C° 0 mm 0 mps 725 mmHg 93%
    04:00 +6°C° 0 mm 0 mps 725 mmHg 93%
    05:00 +6°C° 0 mm 0 mps 725 mmHg 93%
    06:00 +7°C° 0 mm 0 mps 725 mmHg 93%
    07:00 +7°C° 0 mm 0 mps 725 mmHg 92%
    08:00 +9°C° 0 mm 0 mps 726 mmHg 84%
    09:00 +12°C° 0 mm 0 mps 726 mmHg 76%
    10:00 +14°C° 0 mm 0 mps 726 mmHg 68%
    11:00 +15°C° 0 mm 0 mps 726 mmHg 62%
    12:00 +16°C° 0 mm 0 mps 725 mmHg 57%
    13:00 +18°C° 0 mm 0 mps 725 mmHg 51%
    14:00 +17°C° 0 mm 0 mps 725 mmHg 53%
    15:00 +17°C° 0 mm 0 mps 725 mmHg 55%
    16:00 +16°C° 0 mm 0 mps 724 mmHg 56%
    17:00 +14°C° 0 mm 0 mps 724 mmHg 61%
    18:00 +13°C° 0 mm 0 mps 724 mmHg 67%
    19:00 +11°C° 0 mm 0 mps 724 mmHg 72%
    20:00 +10°C° 0 mm 0 mps 724 mmHg 75%
    21:00 +10°C° 0 mm 0 mps 724 mmHg 78%
    22:00 +9°C° 0 mm 0 mps 724 mmHg 81%
    23:00 +9°C° 0 mm 0 mps 724 mmHg 83%

    Day after tomorrow, 22 September, Friday

    Time Temperature Precipitation Wind Pressure Humidity
    00:00 +8°C° 0 mm 0 mps 724 mmHg 84%
    01:00 +8°C° 0 mm 0 mps 724 mmHg 86%
    02:00 +8°C° 0 mm 0 mps 724 mmHg 87%
    03:00 +8°C° 0 mm 1 mps 724 mmHg 89%
    04:00 +8°C° 0 mm 1 mps 724 mmHg 90%
    05:00 +8°C° 0 mm 1 mps 724 mmHg 89%
    06:00 +9°C° 0 mm 1 mps 724 mmHg 88%
    07:00 +9°C° 0 mm 1 mps 724 mmHg 88%
    08:00 +11°C° 0 mm 1 mps 724 mmHg 81%
    09:00 +13°C° 0 mm 1 mps 725 mmHg 73%
    10:00 +15°C° 0 mm 1 mps 725 mmHg 66%
    11:00 +16°C° 0 mm 2 mps 725 mmHg 61%
    12:00 +18°C° 0 mm 2 mps 725 mmHg 56%
    13:00 +19°C° 0 mm 2 mps 725 mmHg 51%
    14:00 +19°C° 0 mm 2 mps 725 mmHg 52%
    15:00 +19°C° 0 mm 2 mps 725 mmHg 53%
    16:00 +19°C° 0 mm 2 mps 725 mmHg 55%
    17:00 +17°C° 0 mm 2 mps 725 mmHg 62%
    18:00 +16°C° 0 mm 1 mps 725 mmHg 70%
    19:00 +14°C° 0 mm 1 mps 725 mmHg 78%
    20:00 +13°C° 0 mm 1 mps 726 mmHg 80%
    21:00 +13°C° 0 mm 1 mps 726 mmHg 82%
    22:00 +12°C° 0 mm 1 mps 726 mmHg 84%
    23:00 +12°C° 0 mm 1 mps 726 mmHg 85%

    23 September, Saturday

    Time Temperature Precipitation Wind Pressure Humidity
    00:00 +11°C° 0 mm 0 mps 727 mmHg 86%
    01:00 +11°C° 0 mm 0 mps 727 mmHg 87%
    02:00 +11°C° 0 mm 0 mps 727 mmHg 88%
    03:00 +11°C° 0 mm 0 mps 727 mmHg 88%
    04:00 +11°C° 0 mm 0 mps 727 mmHg 89%
    05:00 +11°C° 0.1 mm 0 mps 727 mmHg 90%
    06:00 +11°C° 0.1 mm 0 mps 727 mmHg 90%
    07:00 +11°C° 0.1 mm 0 mps 728 mmHg 91%
    08:00 +12°C° 0.1 mm 0 mps 728 mmHg 86%
    09:00 +13°C° 0.1 mm 0 mps 728 mmHg 82%
    10:00 +15°C° 0.1 mm 0 mps 728 mmHg 78%
    11:00 +16°C° 0.1 mm 0 mps 728 mmHg 73%
    12:00 +19°C° 0.1 mm 1 mps 728 mmHg 67%
    13:00 +20°C° 0.1 mm 1 mps 728 mmHg 62%
    14:00 +20°C° 0.1 mm 1 mps 728 mmHg 62%
    15:00 +20°C° 0.1 mm 1 mps 727 mmHg 61%
    16:00 +20°C° 0.1 mm 1 mps 727 mmHg 60%
    17:00 +18°C° 0 mm 1 mps 727 mmHg 68%
    18:00 +15°C° 0 mm 1 mps 727 mmHg 75%
    19:00 +13°C° 0 mm 1 mps 727 mmHg 82%
    20:00 +12°C° 0 mm 1 mps 727 mmHg 85%
    21:00 +12°C° 0 mm 1 mps 727 mmHg 88%
    22:00 +11°C° 0 mm 1 mps 727 mmHg 90%
    23:00 +11°C° 0 mm 1 mps 727 mmHg 91%

    24 September, Sunday

    Time Temperature Precipitation Wind Pressure Humidity
    00:00 +11°C° 0 mm 1 mps 727 mmHg 92%
    01:00 +10°C° 0 mm 1 mps 727 mmHg 93%
    02:00 +10°C° 0 mm 1 mps 727 mmHg 94%
    03:00 +10°C° 0 mm 1 mps 727 mmHg 94%
    04:00 +10°C° 0 mm 1 mps 727 mmHg 95%
    05:00 +10°C° 0 mm 1 mps 727 mmHg 94%
    06:00 +10°C° 0 mm 1 mps 727 mmHg 94%
    07:00 +10°C° 0 mm 1 mps 728 mmHg 93%
    08:00 +12°C° 0 mm 1 mps 728 mmHg 85%
    09:00 +14°C° 0 mm 2 mps 728 mmHg 77%
    10:00 +17°C° 0 mm 2 mps 728 mmHg 69%
    11:00 +18°C° 0 mm 2 mps 728 mmHg 64%
    12:00 +19°C° 0 mm 2 mps 728 mmHg 60%
    13:00 +20°C° 0 mm 2 mps 728 mmHg 55%
    14:00 +19°C° 0.1 mm 2 mps 728 mmHg 57%
    15:00 +19°C° 0.1 mm 2 mps 727 mmHg 58%
    16:00 +19°C° 0.1 mm 2 mps 727 mmHg 60%
    17:00 +17°C° 0 mm 2 mps 727 mmHg 68%
    18:00 +15°C° 0 mm 2 mps 727 mmHg 75%
    19:00 +13°C° 0 mm 2 mps 727 mmHg 83%
    20:00 +12°C° 0 mm 2 mps 728 mmHg 85%
    21:00 +12°C° 0 mm 2 mps 728 mmHg 87%
    22:00 +10°C° 0 mm 2 mps 728 mmHg 88%
    23:00 +9°C° 0 mm 2 mps 728 mmHg 90%

    25 September, Monday

    Time Temperature Precipitation Wind Pressure Humidity
    00:00 +9°C° 0 mm 2 mps 728 mmHg 91%
    01:00 +9°C° 0 mm 2 mps 728 mmHg 92%
    02:00 +9°C° 0 mm 1 mps 728 mmHg 93%
    03:00 +9°C° 0 mm 1 mps 727 mmHg 93%
    04:00 +9°C° 0 mm 1 mps 727 mmHg 94%
    05:00 +9°C° 0 mm 1 mps 727 mmHg 93%
    06:00 +9°C° 0 mm 1 mps 727 mmHg 93%
    07:00 +9°C° 0 mm 1 mps 727 mmHg 92%
    08:00 +10°C° 0 mm 2 mps 727 mmHg 85%
    09:00 +14°C° 0 mm 2 mps 727 mmHg 78%
    10:00 +16°C° 0 mm 2 mps 728 mmHg 71%
    11:00 +17°C° 0.1 mm 2 mps 727 mmHg 68%
    12:00 +17°C° 0.1 mm 2 mps 727 mmHg 66%
    13:00 +18°C° 0.1 mm 3 mps 727 mmHg 63%
    14:00 +18°C° 0.1 mm 3 mps 726 mmHg 65%
    15:00 +18°C° 0.1 mm 3 mps 726 mmHg 66%
    16:00 +18°C° 0.1 mm 3 mps 726 mmHg 67%
    17:00 +16°C° 0 mm 3 mps 726 mmHg 75%
    18:00 +14°C° 0 mm 2 mps 726 mmHg 82%
    19:00 +13°C° 0 mm 2 mps 726 mmHg 90%
    20:00 +12°C° 0 mm 2 mps 726 mmHg 92%
    21:00 +12°C° 0 mm 2 mps 726 mmHg 93%
    22:00 +10°C° 0 mm 2 mps 726 mmHg 95%
    23:00 +10°C° 0 mm 2 mps 725 mmHg 96%
    Show more